Location: Seattle
(47.6064°N, 122.3308°W)
Time: 05:32:07
(UTC-08:00)

S-56A Canister/Altair - Pass Details

Date: 27 November 2020
Orbit: 633 x 2499 km, 38.9° (Epoch: 23 January)

Event Time Altitude Azimuth Distance (km) Brightness Sun altitude
Rises 20:08:57 0° 233° (SW) 5,481 12.4 -37.6°
Reaches altitude 10° 20:13:17 10° 226° (SW) 4,193 11.6 -38.3°
Enters shadow 20:19:49 31° 198° (SSW) 2,444 10.0 -39.4°
Maximum altitude 20:22:35 36° 166° (SSE) 2,046 - -39.9°
Drops below altitude 10° 20:29:04 10° 102° (ESE) 2,907 - -40.9°
Sets 20:31:32 0° 93° (E) 3,653 - -41.3°
